Year,Month,Day,Hour,Minute,Value (Times are PST for temperature in C)
2006,06,29,00,00,13.20
2006,06,29,00,01,13.20
2006,06,29,00,02,13.20
2006,06,29,00,03,13.10
2006,06,29,00,04,13.10
2006,06,29,00,05,13.10
2006,06,29,00,06,13.10
2006,06,29,00,07,13.10
2006,06,29,00,08,13.10
2006,06,29,00,09,13.00
2006,06,29,00,10,13.00
2006,06,29,00,11,13.00
2006,06,29,00,12,13.00
2006,06,29,00,13,13.00
2006,06,29,00,14,13.00
2006,06,29,00,15,12.90
2006,06,29,00,16,12.90
2006,06,29,00,17,12.90
2006,06,29,00,18,12.90
2006,06,29,00,19,12.90
2006,06,29,00,20,12.90
2006,06,29,00,21,12.80
2006,06,29,00,22,12.80
2006,06,29,00,23,12.80
2006,06,29,00,24,12.80
2006,06,29,00,25,12.80
2006,06,29,00,26,12.80
2006,06,29,00,27,12.80
2006,06,29,00,28,12.80
2006,06,29,00,29,12.80
2006,06,29,00,30,12.80
2006,06,29,00,31,12.80
2006,06,29,00,32,12.70
2006,06,29,00,33,12.70
2006,06,29,00,34,12.70
2006,06,29,00,35,12.70
2006,06,29,00,36,12.70
2006,06,29,00,37,12.70
2006,06,29,00,38,12.70
2006,06,29,00,39,12.70
2006,06,29,00,40,12.70
2006,06,29,00,41,12.70
2006,06,29,00,42,12.70
2006,06,29,00,43,12.70
2006,06,29,00,44,12.70
2006,06,29,00,45,12.70
2006,06,29,00,46,12.70
2006,06,29,00,47,12.70
2006,06,29,00,48,12.70
2006,06,29,00,49,12.70
2006,06,29,00,50,12.70
2006,06,29,00,51,12.70
2006,06,29,00,52,12.70
2006,06,29,00,53,12.70
2006,06,29,00,54,12.70
2006,06,29,00,55,12.70
2006,06,29,00,56,12.70
2006,06,29,00,57,12.70
2006,06,29,00,58,12.70
2006,06,29,00,59,12.70
2006,06,29,01,00,12.80
2006,06,29,01,01,12.80
2006,06,29,01,02,12.80
2006,06,29,01,03,12.80
2006,06,29,01,04,12.80
2006,06,29,01,05,12.80
2006,06,29,01,06,12.90
2006,06,29,01,07,12.90
2006,06,29,01,08,12.90
2006,06,29,01,09,12.90
2006,06,29,01,10,13.00
2006,06,29,01,11,13.00
2006,06,29,01,12,13.00
2006,06,29,01,13,13.00
2006,06,29,01,14,13.00
2006,06,29,01,15,13.00
2006,06,29,01,16,13.10
2006,06,29,01,17,13.10
2006,06,29,01,18,13.10
2006,06,29,01,19,13.10
2006,06,29,01,20,13.10
2006,06,29,01,21,13.10
2006,06,29,01,22,13.10
2006,06,29,01,23,13.10
2006,06,29,01,24,13.20
2006,06,29,01,25,13.20
2006,06,29,01,26,13.20
2006,06,29,01,27,13.20
2006,06,29,01,28,13.20
2006,06,29,01,29,13.20
2006,06,29,01,30,13.20
2006,06,29,01,31,13.20
2006,06,29,01,32,13.20
2006,06,29,01,33,13.20
2006,06,29,01,34,13.20
2006,06,29,01,35,13.20
2006,06,29,01,36,13.20
2006,06,29,01,37,13.20
2006,06,29,01,38,13.20
2006,06,29,01,39,13.10
2006,06,29,01,40,13.10
2006,06,29,01,41,13.10
2006,06,29,01,42,13.10
2006,06,29,01,43,13.10
2006,06,29,01,44,13.10
2006,06,29,01,45,13.10
2006,06,29,01,46,13.20
2006,06,29,01,47,13.20
2006,06,29,01,48,13.20
2006,06,29,01,49,13.20
2006,06,29,01,50,13.20
2006,06,29,01,51,13.30
2006,06,29,01,52,13.30
2006,06,29,01,53,13.30
2006,06,29,01,54,13.30
2006,06,29,01,55,13.30
2006,06,29,01,56,13.30
2006,06,29,01,57,13.30
2006,06,29,01,58,13.30
2006,06,29,01,59,13.30
2006,06,29,02,00,13.20
2006,06,29,02,01,13.20
2006,06,29,02,02,13.20
2006,06,29,02,03,13.20
2006,06,29,02,04,13.20
2006,06,29,02,05,13.20
2006,06,29,02,06,13.10
2006,06,29,02,07,13.10
2006,06,29,02,08,13.10
2006,06,29,02,09,13.10
2006,06,29,02,10,13.10
2006,06,29,02,11,13.10
2006,06,29,02,12,13.00
2006,06,29,02,13,13.00
2006,06,29,02,14,13.00
2006,06,29,02,15,13.00
2006,06,29,02,16,13.00
2006,06,29,02,17,12.90
2006,06,29,02,18,12.90
2006,06,29,02,19,12.90
2006,06,29,02,20,13.00
2006,06,29,02,21,13.00
2006,06,29,02,22,13.10
2006,06,29,02,23,13.10
2006,06,29,02,24,13.10
2006,06,29,02,25,13.10
2006,06,29,02,26,13.10
2006,06,29,02,27,13.20
2006,06,29,02,28,13.20
2006,06,29,02,29,13.20
2006,06,29,02,30,13.20
2006,06,29,02,31,13.20
2006,06,29,02,32,13.20
2006,06,29,02,33,13.20
2006,06,29,02,34,13.20
2006,06,29,02,35,13.20
2006,06,29,02,36,13.10
2006,06,29,02,37,13.10
2006,06,29,02,38,13.00
2006,06,29,02,39,12.90
2006,06,29,02,40,12.80
2006,06,29,02,41,12.80
2006,06,29,02,42,12.80
2006,06,29,02,43,12.70
2006,06,29,02,44,12.70
2006,06,29,02,45,12.60
2006,06,29,02,46,12.60
2006,06,29,02,47,12.60
2006,06,29,02,48,12.50
2006,06,29,02,49,12.50
2006,06,29,02,50,12.50
2006,06,29,02,51,12.40
2006,06,29,02,52,12.40
2006,06,29,02,53,12.30
2006,06,29,02,54,12.30
2006,06,29,02,55,12.30
2006,06,29,02,56,12.30
2006,06,29,02,57,12.30
2006,06,29,02,58,12.20
2006,06,29,02,59,12.20
2006,06,29,03,00,12.20
2006,06,29,03,01,12.20
2006,06,29,03,02,12.10
2006,06,29,03,03,12.10
2006,06,29,03,04,12.00
2006,06,29,03,05,12.00
2006,06,29,03,06,12.00
2006,06,29,03,07,12.00
2006,06,29,03,08,11.90
2006,06,29,03,09,11.90
2006,06,29,03,10,11.90
2006,06,29,03,11,11.90
2006,06,29,03,12,11.80
2006,06,29,03,13,11.80
2006,06,29,03,14,11.80
2006,06,29,03,15,11.80
2006,06,29,03,16,11.80
2006,06,29,03,17,11.80
2006,06,29,03,18,11.80
2006,06,29,03,19,11.80
2006,06,29,03,20,11.80
2006,06,29,03,21,11.80
2006,06,29,03,22,11.80
2006,06,29,03,23,11.80
2006,06,29,03,24,11.80
2006,06,29,03,25,11.80
2006,06,29,03,26,11.80
2006,06,29,03,27,11.80
2006,06,29,03,28,11.80
2006,06,29,03,29,11.80
2006,06,29,03,30,11.80
2006,06,29,03,31,11.80
2006,06,29,03,32,11.80
2006,06,29,03,33,11.80
2006,06,29,03,34,11.70
2006,06,29,03,35,11.70
2006,06,29,03,36,11.70
2006,06,29,03,37,11.70
2006,06,29,03,38,11.70
2006,06,29,03,39,11.70
2006,06,29,03,40,11.70
2006,06,29,03,41,11.60
2006,06,29,03,42,11.60
2006,06,29,03,43,11.60
2006,06,29,03,44,11.60
2006,06,29,03,45,11.60
2006,06,29,03,46,11.60
2006,06,29,03,47,11.60
2006,06,29,03,48,11.60
2006,06,29,03,49,11.60
2006,06,29,03,50,11.60
2006,06,29,03,51,11.60
2006,06,29,03,52,11.60
2006,06,29,03,53,11.60
2006,06,29,03,54,11.60
2006,06,29,03,55,11.50
2006,06,29,03,56,11.40
2006,06,29,03,57,11.40
2006,06,29,03,58,11.40
2006,06,29,03,59,11.40
2006,06,29,04,00,11.40
2006,06,29,04,01,11.40
2006,06,29,04,02,11.30
2006,06,29,04,03,11.30
2006,06,29,04,04,11.30
2006,06,29,04,05,11.20
2006,06,29,04,06,11.20
2006,06,29,04,07,11.20
2006,06,29,04,08,11.20
2006,06,29,04,09,11.20
2006,06,29,04,10,11.20
2006,06,29,04,11,11.20
2006,06,29,04,12,11.20
2006,06,29,04,13,11.20
2006,06,29,04,14,11.10
2006,06,29,04,15,11.10
2006,06,29,04,16,11.10
2006,06,29,04,17,11.10
2006,06,29,04,18,11.10
2006,06,29,04,19,11.10
2006,06,29,04,20,11.10
2006,06,29,04,21,11.10
2006,06,29,04,22,11.10
2006,06,29,04,23,11.10
2006,06,29,04,24,11.10
2006,06,29,04,25,10.90
2006,06,29,04,26,10.90
2006,06,29,04,27,10.90
2006,06,29,04,28,10.90
2006,06,29,04,29,10.90
2006,06,29,04,30,10.90
2006,06,29,04,31,10.90
2006,06,29,04,32,10.90
2006,06,29,04,33,10.90
2006,06,29,04,34,10.90
2006,06,29,04,35,10.90
2006,06,29,04,36,10.90
2006,06,29,04,37,10.90
2006,06,29,04,38,10.90
2006,06,29,04,39,10.90
2006,06,29,04,40,10.90
2006,06,29,04,41,10.90
2006,06,29,04,42,10.90
2006,06,29,04,43,10.90
2006,06,29,04,44,10.90
2006,06,29,04,45,10.90
2006,06,29,04,46,10.90
2006,06,29,04,47,10.90
2006,06,29,04,48,10.90
2006,06,29,04,49,10.90
2006,06,29,04,50,10.90
2006,06,29,04,51,10.90
2006,06,29,04,52,10.90
2006,06,29,04,53,10.90
2006,06,29,04,54,10.90
2006,06,29,04,55,10.90
2006,06,29,04,56,10.90
2006,06,29,04,57,10.90
2006,06,29,04,58,10.90
2006,06,29,04,59,10.90
2006,06,29,05,00,10.90
2006,06,29,05,01,10.90
2006,06,29,05,02,10.90
2006,06,29,05,03,10.90
2006,06,29,05,04,10.90
2006,06,29,05,05,10.90
2006,06,29,05,06,10.90
2006,06,29,05,07,10.90
2006,06,29,05,08,10.90
2006,06,29,05,09,10.90
2006,06,29,05,10,10.90
2006,06,29,05,11,10.90
2006,06,29,05,12,10.90
2006,06,29,05,13,10.90
2006,06,29,05,14,10.90
2006,06,29,05,15,10.90
2006,06,29,05,16,10.90
2006,06,29,05,17,10.90
2006,06,29,05,18,10.90
2006,06,29,05,19,10.90
2006,06,29,05,20,10.90
2006,06,29,05,21,10.90
2006,06,29,05,22,10.90
2006,06,29,05,23,10.90
2006,06,29,05,24,10.90
2006,06,29,05,25,10.90
2006,06,29,05,26,10.90
2006,06,29,05,27,10.90
2006,06,29,05,28,10.90
2006,06,29,05,29,10.90
2006,06,29,05,30,10.90
2006,06,29,05,31,10.90
2006,06,29,05,32,10.90
2006,06,29,05,33,10.90
2006,06,29,05,34,10.90
2006,06,29,05,35,10.90
2006,06,29,05,36,10.90
2006,06,29,05,37,10.90
2006,06,29,05,38,10.90
2006,06,29,05,39,10.90
2006,06,29,05,40,10.90
2006,06,29,05,41,10.90
2006,06,29,05,42,10.90
2006,06,29,05,43,11.00
2006,06,29,05,44,11.10
2006,06,29,05,45,11.10
2006,06,29,05,46,11.10
2006,06,29,05,47,11.10
2006,06,29,05,48,11.20
2006,06,29,05,49,11.20
2006,06,29,05,50,11.20
2006,06,29,05,51,11.30
2006,06,29,05,52,11.30
2006,06,29,05,53,11.40
2006,06,29,05,54,11.40
2006,06,29,05,55,11.40
2006,06,29,05,56,11.40
2006,06,29,05,57,11.50
2006,06,29,05,58,11.60
2006,06,29,05,59,11.60
2006,06,29,06,00,11.60
2006,06,29,06,01,11.70
2006,06,29,06,02,11.70
2006,06,29,06,03,11.80
2006,06,29,06,04,11.80
2006,06,29,06,05,11.80
2006,06,29,06,06,11.90
2006,06,29,06,07,12.00
2006,06,29,06,08,12.10
2006,06,29,06,09,12.20
2006,06,29,06,10,12.30
2006,06,29,06,11,12.30
2006,06,29,06,12,12.40
2006,06,29,06,13,12.50
2006,06,29,06,14,12.50
2006,06,29,06,15,12.60
2006,06,29,06,16,12.60
2006,06,29,06,17,12.70
2006,06,29,06,18,12.80
2006,06,29,06,19,12.80
2006,06,29,06,20,12.90
2006,06,29,06,21,13.00
2006,06,29,06,22,13.10
2006,06,29,06,23,13.10
2006,06,29,06,24,13.20
2006,06,29,06,25,13.30
2006,06,29,06,26,13.30
2006,06,29,06,27,13.30
2006,06,29,06,28,13.40
2006,06,29,06,29,13.40
2006,06,29,06,30,13.50
2006,06,29,06,31,13.50
2006,06,29,06,32,13.60
2006,06,29,06,33,13.70
2006,06,29,06,34,13.70
2006,06,29,06,35,13.90
2006,06,29,06,36,14.00
2006,06,29,06,37,14.00
2006,06,29,06,38,14.10
2006,06,29,06,39,14.20
2006,06,29,06,40,14.20
2006,06,29,06,41,14.20
2006,06,29,06,42,14.30
2006,06,29,06,43,14.40
2006,06,29,06,44,14.50
2006,06,29,06,45,14.60
2006,06,29,06,46,14.60
2006,06,29,06,47,14.70
2006,06,29,06,48,14.70
2006,06,29,06,49,14.70
2006,06,29,06,50,14.80
2006,06,29,06,51,14.80
2006,06,29,06,52,14.80
2006,06,29,06,53,14.80
2006,06,29,06,54,14.80
2006,06,29,06,55,14.80
2006,06,29,06,56,14.80
2006,06,29,06,57,14.80
2006,06,29,06,58,14.80
2006,06,29,06,59,14.90
2006,06,29,07,00,14.90
2006,06,29,07,01,15.00
2006,06,29,07,02,15.00
2006,06,29,07,03,15.10
2006,06,29,07,04,15.20
2006,06,29,07,05,15.20
2006,06,29,07,06,15.30
2006,06,29,07,07,15.30
2006,06,29,07,08,15.30
2006,06,29,07,09,15.30
2006,06,29,07,10,15.30
2006,06,29,07,11,15.40
2006,06,29,07,12,15.40
2006,06,29,07,13,15.50
2006,06,29,07,14,15.50
2006,06,29,07,15,15.50
2006,06,29,07,16,15.60
2006,06,29,07,17,15.60
2006,06,29,07,18,15.60
2006,06,29,07,19,15.60
2006,06,29,07,20,15.70
2006,06,29,07,21,15.70
2006,06,29,07,22,15.70
2006,06,29,07,23,15.60
2006,06,29,07,24,15.60
2006,06,29,07,25,15.70
2006,06,29,07,26,15.70
2006,06,29,07,27,15.70
2006,06,29,07,28,15.70
2006,06,29,07,29,15.80
2006,06,29,07,30,15.80
2006,06,29,07,31,15.80
2006,06,29,07,32,15.90
2006,06,29,07,33,15.90
2006,06,29,07,34,16.10
2006,06,29,07,35,16.10
2006,06,29,07,36,16.10
2006,06,29,07,37,16.10
2006,06,29,07,38,16.10
2006,06,29,07,39,16.10
2006,06,29,07,40,16.10
2006,06,29,07,41,16.10
2006,06,29,07,42,16.10
2006,06,29,07,43,16.10
2006,06,29,07,44,16.10
2006,06,29,07,45,16.20
2006,06,29,07,46,16.20
2006,06,29,07,47,16.20
2006,06,29,07,48,16.20
2006,06,29,07,49,16.20
2006,06,29,07,50,16.20
2006,06,29,07,51,16.20
2006,06,29,07,52,16.30
2006,06,29,07,53,16.30
2006,06,29,07,54,16.30
2006,06,29,07,55,16.30
2006,06,29,07,56,16.40
2006,06,29,07,57,16.30
2006,06,29,07,58,16.30
2006,06,29,07,59,16.30
2006,06,29,08,00,16.30
2006,06,29,08,01,16.30
2006,06,29,08,02,16.30
2006,06,29,08,03,16.30
2006,06,29,08,04,16.40
2006,06,29,08,05,16.40
2006,06,29,08,06,16.40
2006,06,29,08,07,16.40
2006,06,29,08,08,16.40
2006,06,29,08,09,16.50
2006,06,29,08,10,16.60
2006,06,29,08,11,16.60
2006,06,29,08,12,16.50
2006,06,29,08,13,16.40
2006,06,29,08,14,16.40
2006,06,29,08,15,16.40
2006,06,29,08,16,16.40
2006,06,29,08,17,16.40
2006,06,29,08,18,16.40
2006,06,29,08,19,16.40
2006,06,29,08,20,16.40
2006,06,29,08,21,16.40
2006,06,29,08,22,16.40
2006,06,29,08,23,16.40
2006,06,29,08,24,16.40
2006,06,29,08,25,16.40
2006,06,29,08,26,16.50
2006,06,29,08,27,16.60
2006,06,29,08,28,16.70
2006,06,29,08,29,16.70
2006,06,29,08,30,16.70
2006,06,29,08,31,16.70
2006,06,29,08,32,16.70
2006,06,29,08,33,16.70
2006,06,29,08,34,16.70
2006,06,29,08,35,16.70
2006,06,29,08,36,16.80
2006,06,29,08,37,16.80
2006,06,29,08,38,16.90
2006,06,29,08,39,16.90
2006,06,29,08,40,16.90
2006,06,29,08,41,17.00
2006,06,29,08,42,17.00
2006,06,29,08,43,17.00
2006,06,29,08,44,17.00
2006,06,29,08,45,17.00
2006,06,29,08,46,16.90
2006,06,29,08,47,16.90
2006,06,29,08,48,16.90
2006,06,29,08,49,16.90
2006,06,29,08,50,16.90
2006,06,29,08,51,16.90
2006,06,29,08,52,16.90
2006,06,29,08,53,16.90
2006,06,29,08,54,16.90
2006,06,29,08,55,16.90
2006,06,29,08,56,16.90
2006,06,29,08,57,16.90
2006,06,29,08,58,16.90
2006,06,29,08,59,16.90
2006,06,29,09,00,16.90
2006,06,29,09,01,16.90
2006,06,29,09,02,16.90
2006,06,29,09,03,16.90
2006,06,29,09,04,16.90
2006,06,29,09,05,16.90
2006,06,29,09,06,16.90
2006,06,29,09,07,16.90
2006,06,29,09,08,16.90
2006,06,29,09,09,17.00
2006,06,29,09,10,17.00
2006,06,29,09,11,17.00
2006,06,29,09,12,17.00
2006,06,29,09,13,17.00
2006,06,29,09,14,17.10
2006,06,29,09,15,17.10
2006,06,29,09,16,17.20
2006,06,29,09,17,17.20
2006,06,29,09,18,17.20
2006,06,29,09,19,17.20
2006,06,29,09,20,17.20
2006,06,29,09,21,17.20
2006,06,29,09,22,17.20
2006,06,29,09,23,17.20
2006,06,29,09,24,17.30
2006,06,29,09,25,17.30
2006,06,29,09,26,17.30
2006,06,29,09,27,17.30
2006,06,29,09,28,17.30
2006,06,29,09,29,17.30
2006,06,29,09,30,17.40
2006,06,29,09,31,17.40
2006,06,29,09,32,17.40
2006,06,29,09,33,17.40
2006,06,29,09,34,17.40
2006,06,29,09,35,17.40
2006,06,29,09,36,17.40
2006,06,29,09,37,17.50
2006,06,29,09,38,17.60
2006,06,29,09,39,17.70
2006,06,29,09,40,17.70
2006,06,29,09,41,17.80
2006,06,29,09,42,17.80
2006,06,29,09,43,17.90
2006,06,29,09,44,17.90
2006,06,29,09,45,17.90
2006,06,29,09,46,17.90
2006,06,29,09,47,18.00
2006,06,29,09,48,18.10
2006,06,29,09,49,18.10
2006,06,29,09,50,18.20
2006,06,29,09,51,18.20
2006,06,29,09,52,18.20
2006,06,29,09,53,18.20
2006,06,29,09,54,18.20
2006,06,29,09,55,18.30
2006,06,29,09,56,18.30
2006,06,29,09,57,18.30
2006,06,29,09,58,18.40
2006,06,29,09,59,18.40
2006,06,29,10,00,18.50
2006,06,29,10,01,18.50
2006,06,29,10,02,18.50
2006,06,29,10,03,18.60
2006,06,29,10,04,18.60
2006,06,29,10,05,18.50
2006,06,29,10,06,18.50
2006,06,29,10,07,18.60
2006,06,29,10,08,18.60
2006,06,29,10,09,18.70
2006,06,29,10,10,18.70
2006,06,29,10,11,18.80
2006,06,29,10,12,18.80
2006,06,29,10,13,18.80
2006,06,29,10,14,18.70
2006,06,29,10,15,18.70
2006,06,29,10,16,18.70
2006,06,29,10,17,18.70
2006,06,29,10,18,18.80
2006,06,29,10,19,18.80
2006,06,29,10,20,18.80
2006,06,29,10,21,18.80
2006,06,29,10,22,18.80
2006,06,29,10,23,18.80
2006,06,29,10,24,18.90
2006,06,29,10,25,18.90
2006,06,29,10,26,18.90
2006,06,29,10,27,18.90
2006,06,29,10,28,18.90
2006,06,29,10,29,18.90
2006,06,29,10,30,18.90
2006,06,29,10,31,18.90
2006,06,29,10,32,18.90
2006,06,29,10,33,18.90
2006,06,29,10,34,18.90
2006,06,29,10,35,18.90
2006,06,29,10,36,18.90
2006,06,29,10,37,18.80
2006,06,29,10,38,18.60
2006,06,29,10,39,18.50
2006,06,29,10,40,18.30
2006,06,29,10,41,18.30
2006,06,29,10,42,18.20
2006,06,29,10,43,18.30
2006,06,29,10,44,18.30
2006,06,29,10,45,18.30
2006,06,29,10,46,18.30
2006,06,29,10,47,18.20
2006,06,29,10,48,18.20
2006,06,29,10,49,18.20
2006,06,29,10,50,18.20
2006,06,29,10,51,18.10
2006,06,29,10,52,17.90
2006,06,29,10,53,17.90
2006,06,29,10,54,17.90
2006,06,29,10,55,17.80
2006,06,29,10,56,17.80
2006,06,29,10,57,17.80
2006,06,29,10,58,17.80
2006,06,29,10,59,17.90
2006,06,29,11,00,17.90
2006,06,29,11,01,17.90
2006,06,29,11,02,18.00
2006,06,29,11,03,18.10
2006,06,29,11,04,18.10
2006,06,29,11,05,18.10
2006,06,29,11,06,17.90
2006,06,29,11,07,17.90
2006,06,29,11,08,17.80
2006,06,29,11,09,17.80
2006,06,29,11,10,17.80
2006,06,29,11,11,17.90
2006,06,29,11,12,17.90
2006,06,29,11,13,17.90
2006,06,29,11,14,18.00
2006,06,29,11,15,18.10
2006,06,29,11,16,18.20
2006,06,29,11,17,18.30
2006,06,29,11,18,18.40
2006,06,29,11,19,18.50
2006,06,29,11,20,18.50
2006,06,29,11,21,18.50
2006,06,29,11,22,18.50
2006,06,29,11,23,18.60
2006,06,29,11,24,18.60
2006,06,29,11,25,18.60
2006,06,29,11,26,18.50
2006,06,29,11,27,18.40
2006,06,29,11,28,18.40
2006,06,29,11,29,18.40
2006,06,29,11,30,18.50
2006,06,29,11,31,18.60
2006,06,29,11,32,18.70
2006,06,29,11,33,18.70
2006,06,29,11,34,18.70
2006,06,29,11,35,18.70
2006,06,29,11,36,18.80
2006,06,29,11,37,18.70
2006,06,29,11,38,18.70
2006,06,29,11,39,18.80
2006,06,29,11,40,18.80
2006,06,29,11,41,18.80
2006,06,29,11,42,18.80
2006,06,29,11,43,18.80
2006,06,29,11,44,18.60
2006,06,29,11,45,18.40
2006,06,29,11,46,18.40
2006,06,29,11,47,18.30
2006,06,29,11,48,18.30
2006,06,29,11,49,18.30
2006,06,29,11,50,18.30
2006,06,29,11,51,18.30
2006,06,29,11,52,18.30
2006,06,29,11,53,18.40
2006,06,29,11,54,18.50
2006,06,29,11,55,18.60
2006,06,29,11,56,18.60
2006,06,29,11,57,18.60
2006,06,29,11,58,18.60
2006,06,29,11,59,18.50
2006,06,29,12,00,18.50
2006,06,29,12,01,18.40
2006,06,29,12,02,18.30
2006,06,29,12,03,18.40
2006,06,29,12,04,18.50
2006,06,29,12,05,18.50
2006,06,29,12,06,18.60
2006,06,29,12,07,18.60
2006,06,29,12,08,18.70
2006,06,29,12,09,18.70
2006,06,29,12,10,18.70
2006,06,29,12,11,18.70
2006,06,29,12,12,18.70
2006,06,29,12,13,18.80
2006,06,29,12,14,18.90
2006,06,29,12,15,19.00
2006,06,29,12,16,19.10
2006,06,29,12,17,19.10
2006,06,29,12,18,19.20
2006,06,29,12,19,19.20
2006,06,29,12,20,19.20
2006,06,29,12,21,19.20
2006,06,29,12,22,19.10
2006,06,29,12,23,19.00
2006,06,29,12,24,18.90
2006,06,29,12,25,18.90
2006,06,29,12,26,18.90
2006,06,29,12,27,19.00
2006,06,29,12,28,19.10
2006,06,29,12,29,19.10
2006,06,29,12,30,19.10
2006,06,29,12,31,19.10
2006,06,29,12,32,19.10
2006,06,29,12,33,19.10
2006,06,29,12,34,19.10
2006,06,29,12,35,19.10
2006,06,29,12,36,19.10
2006,06,29,12,37,19.10
2006,06,29,12,38,19.10
2006,06,29,12,39,19.20
2006,06,29,12,40,19.30
2006,06,29,12,41,19.30
2006,06,29,12,42,19.30
2006,06,29,12,43,19.30
2006,06,29,12,44,19.20
2006,06,29,12,45,19.20
2006,06,29,12,46,19.30
2006,06,29,12,47,19.30
2006,06,29,12,48,19.20
2006,06,29,12,49,19.20
2006,06,29,12,50,19.20
2006,06,29,12,51,19.20
2006,06,29,12,52,19.40
2006,06,29,12,53,19.40
2006,06,29,12,54,19.50
2006,06,29,12,55,19.60
2006,06,29,12,56,19.60
2006,06,29,12,57,19.70
2006,06,29,12,58,19.70
2006,06,29,12,59,19.70
2006,06,29,13,00,19.70
2006,06,29,13,01,19.70
2006,06,29,13,02,19.70
2006,06,29,13,03,19.60
2006,06,29,13,04,19.70
2006,06,29,13,05,19.80
2006,06,29,13,06,19.90
2006,06,29,13,07,19.90
2006,06,29,13,08,19.90
2006,06,29,13,09,20.00
2006,06,29,13,10,20.10
2006,06,29,13,11,20.20
2006,06,29,13,12,20.40
2006,06,29,13,13,20.50
2006,06,29,13,14,20.50
2006,06,29,13,15,20.50
2006,06,29,13,16,20.40
2006,06,29,13,17,20.40
2006,06,29,13,18,20.30
2006,06,29,13,19,20.30
2006,06,29,13,20,20.20
2006,06,29,13,21,20.20
2006,06,29,13,22,20.10
2006,06,29,13,23,20.00
2006,06,29,13,24,19.90
2006,06,29,13,25,19.90
2006,06,29,13,26,19.90
2006,06,29,13,27,19.90
2006,06,29,13,28,19.90
2006,06,29,13,29,19.90
2006,06,29,13,30,19.90
2006,06,29,13,31,19.90
2006,06,29,13,32,19.90
2006,06,29,13,33,20.00
2006,06,29,13,34,20.10
2006,06,29,13,35,20.10
2006,06,29,13,36,20.10
2006,06,29,13,37,20.10
2006,06,29,13,38,20.10
2006,06,29,13,39,20.10
2006,06,29,13,40,20.10
2006,06,29,13,41,20.10
2006,06,29,13,42,20.10
2006,06,29,13,43,20.10
2006,06,29,13,44,20.00
2006,06,29,13,45,19.90
2006,06,29,13,46,20.00
2006,06,29,13,47,20.00
2006,06,29,13,48,19.90
2006,06,29,13,49,19.90
2006,06,29,13,50,20.10
2006,06,29,13,51,20.10
2006,06,29,13,52,20.10
2006,06,29,13,53,20.10
2006,06,29,13,54,20.10
2006,06,29,13,55,20.20
2006,06,29,13,56,20.20
2006,06,29,13,57,20.20
2006,06,29,13,58,20.20
2006,06,29,13,59,20.20
2006,06,29,14,00,20.20
2006,06,29,14,01,20.20
2006,06,29,14,02,20.30
2006,06,29,14,03,20.30
2006,06,29,14,04,20.30
2006,06,29,14,05,20.30
2006,06,29,14,06,20.40
2006,06,29,14,07,20.50
2006,06,29,14,08,20.60
2006,06,29,14,09,20.80
2006,06,29,14,10,20.80
2006,06,29,14,11,20.90
2006,06,29,14,12,20.90
2006,06,29,14,13,20.90
2006,06,29,14,14,20.90
2006,06,29,14,15,20.90
2006,06,29,14,16,21.00
2006,06,29,14,17,21.00
2006,06,29,14,18,21.10
2006,06,29,14,19,21.20
2006,06,29,14,20,21.10
2006,06,29,14,21,21.00
2006,06,29,14,22,21.00
2006,06,29,14,23,20.90
2006,06,29,14,24,20.90
2006,06,29,14,25,20.90
2006,06,29,14,26,20.90
2006,06,29,14,27,20.90
2006,06,29,14,28,20.90
2006,06,29,14,29,20.90
2006,06,29,14,30,21.00
2006,06,29,14,31,21.00
2006,06,29,14,32,21.10
2006,06,29,14,33,21.10
2006,06,29,14,34,21.00
2006,06,29,14,35,21.10
2006,06,29,14,36,21.20
2006,06,29,14,37,21.30
2006,06,29,14,38,21.40
2006,06,29,14,39,21.50
2006,06,29,14,40,21.60
2006,06,29,14,41,21.70
2006,06,29,14,42,21.80
2006,06,29,14,43,21.90
2006,06,29,14,44,21.80
2006,06,29,14,45,21.80
2006,06,29,14,46,21.80
2006,06,29,14,47,21.80
2006,06,29,14,48,21.90
2006,06,29,14,49,22.00
2006,06,29,14,50,22.10
2006,06,29,14,51,22.10
2006,06,29,14,52,22.10
2006,06,29,14,53,22.10
2006,06,29,14,54,22.10
2006,06,29,14,55,22.10
2006,06,29,14,56,22.20
2006,06,29,14,57,22.30
2006,06,29,14,58,22.40
2006,06,29,14,59,22.60
2006,06,29,15,00,22.70
2006,06,29,15,01,22.80
2006,06,29,15,02,22.90
2006,06,29,15,03,23.10
2006,06,29,15,04,23.10
2006,06,29,15,05,23.10
2006,06,29,15,06,23.10
2006,06,29,15,07,23.10
2006,06,29,15,08,23.10
2006,06,29,15,09,23.20
2006,06,29,15,10,23.30
2006,06,29,15,11,23.30
2006,06,29,15,12,23.30
2006,06,29,15,13,23.30
2006,06,29,15,14,23.30
2006,06,29,15,15,23.30
2006,06,29,15,16,23.10
2006,06,29,15,17,23.00
2006,06,29,15,18,22.90
2006,06,29,15,19,22.90
2006,06,29,15,20,22.80
2006,06,29,15,21,22.80
2006,06,29,15,22,22.80
2006,06,29,15,23,22.80
2006,06,29,15,24,22.80
2006,06,29,15,25,22.70
2006,06,29,15,26,22.60
2006,06,29,15,27,22.60
2006,06,29,15,28,22.60
2006,06,29,15,29,22.70
2006,06,29,15,30,22.80
2006,06,29,15,31,22.80
2006,06,29,15,32,22.80
2006,06,29,15,33,22.80
2006,06,29,15,34,22.80
2006,06,29,15,35,22.80
2006,06,29,15,36,22.90
2006,06,29,15,37,22.90
2006,06,29,15,38,22.90
2006,06,29,15,39,23.00
2006,06,29,15,40,23.10
2006,06,29,15,41,23.20
2006,06,29,15,42,23.20
2006,06,29,15,43,23.20
2006,06,29,15,44,23.10
2006,06,29,15,45,23.00
2006,06,29,15,46,22.90
2006,06,29,15,47,22.90
2006,06,29,15,48,23.00
2006,06,29,15,49,23.00
2006,06,29,15,50,22.90
2006,06,29,15,51,22.90
2006,06,29,15,52,22.90
2006,06,29,15,53,23.00
2006,06,29,15,54,23.10
2006,06,29,15,55,23.10
2006,06,29,15,56,23.20
2006,06,29,15,57,23.20
2006,06,29,15,58,23.30
2006,06,29,15,59,23.40
2006,06,29,16,00,23.40
2006,06,29,16,01,23.40
2006,06,29,16,02,23.30
2006,06,29,16,03,23.30
2006,06,29,16,04,23.20
2006,06,29,16,05,23.20
2006,06,29,16,06,23.20
2006,06,29,16,07,23.20
2006,06,29,16,08,23.20
2006,06,29,16,09,23.20
2006,06,29,16,10,23.30
2006,06,29,16,11,23.30
2006,06,29,16,12,23.30
2006,06,29,16,13,23.40
2006,06,29,16,14,23.50
2006,06,29,16,15,23.60
2006,06,29,16,16,23.60
2006,06,29,16,17,23.50
2006,06,29,16,18,23.30
2006,06,29,16,19,23.30
2006,06,29,16,20,23.30
2006,06,29,16,21,23.30
2006,06,29,16,22,23.30
2006,06,29,16,23,23.30
2006,06,29,16,24,23.30
2006,06,29,16,25,23.30
2006,06,29,16,26,23.30
2006,06,29,16,27,23.30
2006,06,29,16,28,23.30
2006,06,29,16,29,23.30
2006,06,29,16,30,23.20
2006,06,29,16,31,23.20
2006,06,29,16,32,23.20
2006,06,29,16,33,23.20
2006,06,29,16,34,23.20
2006,06,29,16,35,23.10
2006,06,29,16,36,23.10
2006,06,29,16,37,22.90
2006,06,29,16,38,22.90
2006,06,29,16,39,22.90
2006,06,29,16,40,22.90
2006,06,29,16,41,22.90
2006,06,29,16,42,23.00
2006,06,29,16,43,23.10
2006,06,29,16,44,23.10
2006,06,29,16,45,23.10
2006,06,29,16,46,23.00
2006,06,29,16,47,22.90
2006,06,29,16,48,22.90
2006,06,29,16,49,22.90
2006,06,29,16,50,22.90
2006,06,29,16,51,22.90
2006,06,29,16,52,22.70
2006,06,29,16,53,22.60
2006,06,29,16,54,22.40
2006,06,29,16,55,22.30
2006,06,29,16,56,22.20
2006,06,29,16,57,22.10
2006,06,29,16,58,22.00
2006,06,29,16,59,22.00
2006,06,29,17,00,22.00
2006,06,29,17,01,22.10
2006,06,29,17,02,22.10
2006,06,29,17,03,22.20
2006,06,29,17,04,22.30
2006,06,29,17,05,22.40
2006,06,29,17,06,22.40
2006,06,29,17,07,22.50
2006,06,29,17,08,22.50
2006,06,29,17,09,22.50
2006,06,29,17,10,22.50
2006,06,29,17,11,22.50
2006,06,29,17,12,22.50
2006,06,29,17,13,22.50
2006,06,29,17,14,22.50
2006,06,29,17,15,22.60
2006,06,29,17,16,22.60
2006,06,29,17,17,22.70
2006,06,29,17,18,22.70
2006,06,29,17,19,22.70